IRIDIUM 33 DEB, 35918

Orbit data source: Space-Track

IRIDIUM 33 DEB, 35918 is space debris in LEO originally from a launch on Sun, 14 Sep 1997 UTC launched from the Tyuratam Missile And Space Complex (TTMTR). The debris from Iridium 33, an American commercial communications satellite, has been tracked extensively since its accidental collision with the defunct Russian satellite Cosmos 2251 in 2009. This event, occurring at high speed in low Earth orbit (LEO), generated thousands of pieces of space debris, significantly increasing the risk of further collisions. The Iridium 33 debris cloud has impacted space traffic management and orbital debris mitigation strategies, making it a subject of ongoing study in space situational awareness.

Loading next visibility...
Identifier
35918, 1997-051UB
Orbit
LEO
Country
Flag of USUS
Related business
Manufacturer
Unknown
Mission
Spacecraft
Bus & Motor
Unknown
Mass
Unknown
Launch date (UTC)
1997-09-14 (28 years ago)
Launch vehicle
Unknown
Launch site
Tyuratam Missile And Space Complex (TTMTR)
Object type
Payload
Rocket body
Debris
Shape & HBR
Unknown shape, 0.1 m
Radar Cross Section
Small (<0.1 m²)

Expand to show TLE details & history
Last TLE update: 3 days ago

TLE from 3 days ago
0 IRIDIUM 33 DEB
1 35918U 97051UB  26034.82916847  .00004534  00000-0  11185-2 0  9992
2 35918  86.3975  53.0080 0025935 359.9122 120.1776 14.51768563859773
Epoch: 2026-02-03T19:54Z
TLE epoch observation values (Epoch: 2026-02-03T19:54:00.155Z)
Latitude
59.55645°
Longitude
154.38636°
Altitude
739.373 km
Speed
7.486 km/s
True Right ascension
15h 07m 33s
True Declination
59° 24' 20"
Sunlit
Object was in daylight at epoch
Visualization orbit readout
Latitude
Unknown
Longitude
Unknown
Altitude
Unknown
Speed
Unknown
Apparent Right ascension
Unknown
Apparent Declination
Unknown
Sunlit
N/A
Visualization observer readout
Local Sidereal Time
04:55:47
Azimuth
Unknown
Elevation
Unknown
Doppler factor
Unknown
Orbital elements
Apogee altitude
735.218 km
Perigee altitude
698.417 km
Semi-major axis
7,094.955 km
Eccentricity
0.00259
Inclination
86.3975°
RAAN
53.008°
Arg. of periapsis
359.9122°
True anomaly
120.4341°
Mean anomaly
120.1776°
Eccentric anomaly
120.30589°
Mean motion
3.63177 °/min
Orbital period
99.13 mins
BSTAR
0.0011185
Loading maneuver chart data...
Computing Atmospheric mass density...

Documentation

Showing up to 5 results
|